User: anonymous   Login
Location: Melbourne
(37.8170°S, 144.9670°E)
Time: 15:23:46
(UTC+11:00)
Language:

Cosmos 962 Rocket - Orbit

View from above orbital plane
View from above orbital plane
View from above satellite
View from above satellite

Ground track
Ground track

The orbit data is extracted from the following two-line orbital elements,

1 10461U 77107B   14298.78503402  .00000096  00000-0  81721-4 0  6688
2 10461 082.9513 010.0684 0032250 331.4175 168.4098 13.76702883857930
Epoch (UTC): 25 October 2014 18:50:26
Eccentricity: 0.0032250
inclination: 82.9513°
perigee height: 952 km
apogee height: 999 km
right ascension of ascending node: 10.0684°
argument of perigee: 331.4175°
revolutions per day: 13.76702883
mean anomaly at epoch: 168.4098°
orbit number at epoch: 85793

The dashed part of the orbit path shows where the satellite is in the earth's shadow,  

DLR